Vancouver Int'l Airport, British Columbia

Past 24 Hour Conditions

This table is a summary of hourly weather conditions for the past 24 hours. This summary includes the following parameters: temperature, humidity, dew point, wind speed and direction, air pressure, visibility and/or wind chill and humidex.
Date / Time
(PDT)
Conditions Temp (°C) Humidity (%) Dew Point (°C) Wind (km/h) Pressure (kPa) Vis (km) Humidex
01 August 2014
23:00 Mostly Cloudy 20 80 16 WNW 5 101.4 48 *
22:00 Mostly Cloudy 21 74 16 S 4 101.5 48 25
21:00 Mostly Cloudy 21 79 17 S 8 101.5 48 26
20:00 Mostly Cloudy 22 67 16 NNW 14 101.4 48 27
19:00 Mostly Cloudy 22 63 15 SSE 4 101.5 48 26
18:00 Mostly Cloudy 22 75 17 SW 9 101.5 48 28
17:00 Mostly Cloudy 23 73 18 SW 9 101.5 48 28
16:00 Mostly Cloudy 23 65 16 SW 13 101.6 48 28
15:00 Partly Cloudy 23 60 15 WSW 13 101.6 48 28
14:00 Mostly Cloudy 24   62 16 W 14 101.7 48 29
13:00 Mostly Cloudy 24   63 17 W 10 101.7 48 29
12:00 Mostly Cloudy 23 69 17 W 18 101.8 48 28
11:00 Mostly Cloudy 21 73 16 WNW 18 101.8 48 26
10:00 Mostly Cloudy 21 70 15 WNW 18 101.8 48 25
9:00 Partly Cloudy 21 75 16 WNW 22 101.8 48 26
8:00 Partly Cloudy 21 78 17 NW 19 101.8 48 26
7:00 Mainly Sunny 19 84 16 WNW 14 101.8 48 *
6:00 Sunny 16   90 14 NNW 5 101.7 48 *
5:00 Clear 17 87 15 ESE 5 101.7 48 *
4:00 Clear 18 85 15 NE 9 101.7 48 *
3:00 Clear 17 87 15 NNE 6 101.7 48 *
2:00 Clear 19 87 16 ENE 12 101.7 48 *
1:00 Clear 18 87 16 ESE 13 101.7 48 *
00:00 Clear 20 87 18 SW 13 101.6 48 26
31 July 2014
23:00 Clear 21 83 18 W 10 101.6 48 26
N/A
Not available
 ↑ 
Highest temperature
 ↓ 
Lowest temperature
*
Value not significant.

If you require additional historical weather information, please visit Climate Data Online.